RH
48 49 48 46 44 43 41 39 36 34 34 35 34 35 35 34 32 28 24 20 19 23 27 29 30 29 28 27 25 24 24 22 19 12 7 6 7 8 9 13 17 22 23 23 23 23 23 23 22 25 28 27 26 26 25 26 24 24 23 22 23 25 25 25 25 25 25 25 25 25 26 25 23 21 17 13 9 6 4 2 1 2 3 6 9
57 54 51 48 46 44 43 41 38 36 36 35 35 35 35 34 31 27 23 21 19 24 29 30 31 31 29 28 26 23 22 21 21 18 11 7 6 6 7 10 16 22 23 23 23 23 24 23 23 25 28 27 26 26 26 26 25 25 24 24 25 25 26 25 25 25 24 24 25 26 26 26 25 24 22 20 16 13 10 7 4 2 1 2 5
57 57 53 50 47 45 44 44 40 38 38 37 36 36 36 34 31 26 23 22 21 26 30 31 31 31 30 29 26 23 22 20 20 20 17 11 6 5 6 7 13 21 23 23 23 23 24 23 23 24 28 28 27 27 27 26 25 25 25 24 25 26 26 26 26 25 25 25 25 25 26 26 26 26 25 24 21 19 17 14 11 6 3 1 2
56 58 55 50 48 46 46 46 43 40 40 39 38 37 37 33 30 26 23 22 23 30 34 34 33 33 33 32 27 24 22 21 21 20 20 17 12 6 5 6 10 19 23 23 24 23 23 24 23 24 27 28 28 27 28 27 25 25 25 25 26 26 27 27 26 26 25 25 25 25 25 26 26 26 26 26 24 23 21 19 17 13 9 4 2
58 59 57 53 50 48 48 48 46 43 42 40 39 38 37 34 31 26 24 23 26 35 38 37 36 36 35 32 28 25 23 22 21 21 21 21 19 12 6 6 8 15 22 24 23 24 24 24 23 23 26 28 28 28 28 27 25 25 25 25 26 26 26 27 27 26 26 25 25 25 25 25 25 26 26 26 26 25 24 23 21 18 15 11 6
58 59 58 55 52 51 51 51 50 46 44 42 40 39 37 33 30 27 26 24 30 39 41 39 38 38 36 33 29 26 26 24 22 21 21 21 21 19 11 6 7 11 19 24 23 24 24 24 24 23 26 29 28 27 28 27 26 26 26 25 25 26 26 26 26 26 26 25 25 24 24 24 25 25 25 26 26 26 26 25 23 21 19 16 12
50 56 58 58 55 54 54 54 53 49 46 44 41 40 38 33 30 28 27 28 35 44 44 41 41 41 39 36 31 28 29 27 24 21 19 20 19 20 17 10 7 9 15 23 24 24 24 24 24 23 25 30 30 27 28 28 26 26 26 26 25 25 25 25 25 24 25 25 25 24 24 24 24 24 24 25 25 26 26 26 25 24 22 20 17
43 54 59 64 62 59 59 58 56 51 48 45 42 41 38 33 30 28 28 31 39 47 46 44 44 42 40 36 33 30 28 27 26 24 21 20 19 18 19 15 9 9 12 20 25 24 24 24 24 23 24 28 31 28 28 29 27 26 27 26 26 26 26 25 24 23 23 25 25 24 24 23 24 24 24 24 25 25 25 26 26 25 24 22 20
42 50 59 68 67 65 64 63 60 55 50 45 42 40 37 33 30 28 29 32 41 48 47 46 46 42 37 36 36 34 30 29 28 28 26 23 25 23 22 19 12 11 10 15 24 26 25 24 24 24 23 26 30 29 27 29 28 26 27 27 27 27 27 27 25 23 22 23 23 24 23 23 23 23 23 23 24 24 24 25 25 26 25 24 22
45 48 57 66 70 69 67 67 66 59 52 47 42 39 35 32 29 29 30 33 40 46 47 47 44 39 36 38 41 39 35 34 32 33 29 29 36 32 28 26 19 15 13 13 20 26 26 25 24 24 24 23 27 30 28 28 29 27 27 27 27 28 28 28 26 24 22 22 22 22 22 22 22 22 22 22 22 23 24 24 24 25 25 25 24
49 52 58 64 69 70 70 70 69 62 53 46 42 39 34 31 30 30 32 34 39 45 47 45 41 39 39 41 43 42 41 38 37 38 33 33 38 34 32 34 27 20 16 13 16 23 26 26 25 24 24 24 24 28 30 29 28 28 27 27 27 28 28 28 27 25 23 22 22 22 22 22 21 21 21 21 22 22 23 23 24 24 25 26 25
50 53 58 61 66 69 72 71 70 63 52 47 43 38 34 32 31 31 34 37 42 45 43 41 39 42 43 43 43 45 46 44 42 41 36 33 34 33 35 38 35 26 18 15 13 18 24 26 26 25 24 24 24 25 29 30 29 28 27 28 28 28 28 28 28 27 24 23 22 22 22 22 21 21 21 21 21 21 22 22 23 23 24 25 26
53 54 58 62 70 76 79 76 71 63 54 47 44 42 37 34 33 32 35 41 47 45 41 41 42 45 45 45 47 51 52 50 45 41 37 33 32 34 37 39 40 33 22 18 16 16 21 25 26 26 25 24 24 24 26 29 30 29 28 28 28 28 29 28 28 27 26 24 23 23 22 22 21 21 20 20 20 21 21 21 22 23 24 24 25
58 59 62 69 80 86 87 83 74 67 56 48 54 58 47 36 33 34 38 45 49 45 42 44 47 47 48 49 53 57 56 52 46 41 38 35 34 36 39 42 46 43 30 21 19 17 18 23 26 26 26 25 25 24 24 26 29 29 29 29 29 28 28 28 28 28 27 25 24 23 23 22 22 21 20 20 20 20 20 21 21 21 22 23 24
63 68 71 76 82 83 83 85 78 67 56 58 72 69 54 44 36 37 43 47 49 46 45 47 50 51 52 56 60 60 56 49 45 43 40 36 36 39 41 44 47 50 45 29 19 20 18 19 24 26 27 25 25 25 24 24 25 28 29 29 30 29 28 28 28 28 27 26 25 23 23 23 22 21 21 21 21 21 20 20 21 21 21 21 22
71 75 76 81 86 85 78 82 83 69 57 62 69 62 55 50 42 44 48 49 50 49 50 51 53 55 58 63 65 61 54 49 47 44 41 39 41 44 46 47 47 54 61 49 28 22 22 19 20 23 27 27 25 25 25 25 24 25 27 29 30 30 29 29 28 28 27 27 25 24 24 23 22 22 21 21 21 21 21 20 20 20 20 20 21
70 72 77 84 89 90 85 87 86 74 61 51 49 51 52 51 49 51 53 52 52 52 51 53 55 59 63 66 65 59 55 53 50 46 43 44 48 51 52 52 53 58 71 73 55 35 26 23 21 20 22 26 27 26 25 26 26 24 24 26 28 29 30 29 29 28 28 28 27 25 24 24 24 22 22 21 22 22 22 22 21 20 20 20 20
60 69 81 89 88 88 91 91 81 68 57 48 49 54 56 57 58 58 59 59 57 55 52 54 57 61 65 65 63 59 59 59 52 45 43 49 54 56 59 59 61 64 71 80 78 63 44 30 23 21 20 22 25 26 26 26 26 26 25 24 24 26 27 28 29 29 28 28 28 27 25 24 25 24 23 22 22 22 22 22 21 21 20 20 20
53 68 80 86 87 86 86 82 70 60 55 57 63 63 63 64 66 66 65 65 65 61 56 58 61 61 62 62 62 63 64 61 50 43 45 52 56 58 62 63 64 66 71 75 78 77 68 52 36 24 20 19 21 23 25 26 26 26 26 25 24 24 24 25 26 27 27 28 28 28 27 25 25 25 25 23 22 23 22 22 22 22 21 20 20
48 64 80 85 85 83 78 73 66 62 61 64 66 63 63 64 66 68 68 69 70 66 60 61 64 60 57 58 62 66 65 59 50 46 49 53 55 57 60 64 67 67 69 72 71 70 71 69 59 43 28 19 17 19 21 24 25 26 26 26 25 25 24 23 23 24 24 25 26 26 26 26 25 25 25 25 24 23 23 22 22 22 22 21 20
50 63 83 86 80 78 75 71 68 67 66 65 64 62 62 63 65 68 69 70 68 66 64 64 63 59 57 60 65 67 64 60 55 51 52 53 53 54 58 67 71 68 66 66 66 65 64 65 67 62 50 34 21 16 16 19 22 24 25 26 26 25 25 24 24 24 24 24 24 24 24 24 25 24 24 24 23 23 23 22 22 22 22 22 21
55 64 75 75 74 76 74 71 70 71 70 68 65 64 66 67 70 73 72 72 70 71 71 69 66 62 60 63 66 68 67 65 61 57 56 55 53 53 60 71 73 70 67 62 58 58 58 58 60 62 62 57 44 29 20 15 17 20 22 24 26 26 25 25 24 24 24 24 24 24 23 23 23 23 23 23 23 22 22 22 22 22 22 22 22
61 66 69 69 73 76 74 73 73 74 74 70 65 67 72 72 73 75 74 74 78 79 79 76 73 69 67 67 67 69 70 68 65 61 61 60 55 54 62 73 77 75 70 60 52 50 51 52 54 56 58 63 63 54 40 28 20 18 21 22 23 25 26 26 25 25 24 24 24 24 24 23 23 22 22 23 23 23 22 22 22 22 22 22 22
67 70 70 71 74 75 75 75 75 77 77 71 68 72 76 75 74 76 76 79 83 85 85 82 79 77 74 71 69 69 70 69 65 62 63 64 58 55 63 75 82 79 74 66 56 51 50 50 50 51 53 57 63 63 58 48 37 28 26 27 26 24 25 26 26 26 26 25 25 24 24 24 24 23 23 23 22 22 22 22 22 23 22 22 22
69 72 71 72 74 74 76 78 77 79 79 74 75 79 80 80 80 79 81 84 87 90 89 86 82 81 79 77 72 68 69 68 65 62 61 63 60 57 63 73 82 81 77 74 69 65 63 62 58 53 49 49 53 56 56 54 50 43 35 33 33 30 26 24 25 26 27 26 26 25 25 24 24 24 23 23 23 23 22 22 22 23 23 23 23
69 73 73 72 73 73 76 78 76 79 77 75 77 82 86 88 87 85 86 89 93 95 95 92 86 83 82 80 77 72 70 67 65 65 63 62 62 61 63 69 77 79 76 75 76 77 76 75 70 60 49 41 39 40 40 39 43 48 44 38 36 35 32 28 26 26 26 26 26 26 26 25 25 25 24 24 23 23 23 23 23 23 23 23 23
70 75 77 75 74 73 74 74 77 81 77 78 80 83 89 94 95 92 90 91 94 94 93 89 84 83 83 80 78 72 68 66 63 65 65 62 62 61 63 66 69 74 75 73 73 77 80 79 73 64 53 42 36 33 30 27 31 42 44 39 36 36 37 35 32 29 27 26 26 26 26 26 26 26 25 24 24 24 24 24 23 24 24 23 24
77 80 81 80 80 76 74 77 81 82 80 87 90 86 86 88 91 91 88 87 85 83 79 77 77 80 84 82 79 70 64 65 63 63 63 63 63 63 64 64 67 72 74 71 71 74 80 83 78 70 60 48 41 39 36 30 31 38 40 37 36 36 38 39 38 35 31 28 26 25 25 25 25 26 27 26 25 25 25 24 24 24 25 24 24
81 82 83 87 87 80 82 83 80 78 82 92 91 84 83 83 82 80 78 76 73 71 70 72 75 80 85 81 75 70 66 65 62 59 59 60 64 65 65 65 68 72 72 70 72 75 81 87 85 77 68 57 45 39 38 36 35 36 35 34 34 36 38 40 41 40 37 34 30 26 24 23 24 25 27 28 27 26 26 26 26 25 25 25 25
79 80 82 91 92 88 88 82 76 78 84 91 87 79 83 85 76 69 68 65 64 64 68 72 71 75 78 73 71 70 68 65 61 63 60 57 61 62 62 66 69 70 70 71 73 74 80 87 87 82 74 65 53 43 38 36 35 33 31 32 34 38 41 43 44 44 43 41 38 33 27 24 23 23 24 27 28 28 28 27 26 26 26 25 26
72 74 80 91 96 93 86 81 81 81 80 81 78 74 81 84 67 60 62 59 62 65 66 67 65 71 71 67 72 71 69 67 64 67 65 58 59 60 61 67 70 70 68 69 71 70 76 84 86 84 78 71 62 53 46 40 39 37 31 29 30 35 39 44 47 47 48 46 44 39 33 28 24 22 22 24 26 28 29 29 28 28 27 27 27
69 75 87 97 97 90 81 81 82 74 68 66 68 68 72 77 60 52 56 55 61 61 54 53 56 67 67 64 69 67 68 67 60 61 65 63 62 65 67 70 72 71 67 67 67 63 66 74 79 83 81 77 69 60 56 56 55 52 48 41 34 33 33 34 37 40 43 45 44 42 38 32 27 23 22 22 24 27 29 30 31 31 30 29 29
74 79 90 93 84 81 80 80 74 64 62 62 65 57 47 53 49 50 56 52 54 52 45 50 59 61 59 65 69 62 62 61 56 58 62 63 64 66 70 73 76 74 70 68 64 58 57 62 71 80 82 81 73 63 59 62 64 64 65 63 55 49 43 38 35 32 33 35 37 38 37 34 30 27 24 24 26 28 31 33 34 35 34 33 32
76 75 77 79 74 78 79 74 69 63 60 55 49 36 24 28 34 43 49 45 48 46 43 52 61 59 58 69 66 57 62 62 61 62 63 65 65 65 70 76 78 76 75 71 63 59 59 61 69 79 83 84 78 70 65 65 67 67 69 70 65 60 56 55 51 43 37 32 30 30 31 31 30 29 28 29 32 35 37 38 39 40 42 41 39
73 70 68 73 74 73 69 63 62 57 47 34 26 23 22 24 26 31 33 43 51 43 44 57 60 60 62 66 63 61 61 59 64 67 65 67 67 67 71 77 78 78 78 73 66 64 65 67 70 77 84 87 82 76 71 68 69 70 72 73 71 67 63 61 60 55 50 43 37 31 28 27 27 30 34 36 39 43 46 46 46 47 49 49 47
68 67 63 65 62 57 57 55 55 52 37 23 22 26 26 25 25 22 21 39 46 28 33 51 54 62 67 63 65 67 59 56 66 70 67 67 68 69 71 76 81 84 82 77 73 71 70 70 70 74 80 86 87 84 80 75 73 72 72 73 77 81 76 69 63 59 57 54 51 46 39 33 29 32 40 45 46 50 55 56 54 50 49 49 49
63 59 54 51 48 47 51 50 45 43 34 25 29 32 29 28 26 21 16 23 26 12 13 21 26 45 60 57 58 67 69 66 66 66 67 69 69 69 71 74 79 86 87 83 77 73 72 71 72 73 75 79 80 81 83 82 80 78 76 74 77 83 81 75 67 59 58 59 59 61 57 48 43 39 40 49 54 56 60 61 59 55 51 50 51
56 53 49 46 46 44 39 36 31 29 27 26 32 34 32 31 27 24 20 17 15 11 9 8 8 20 36 43 48 62 68 59 54 64 70 70 70 70 72 76 77 82 87 84 77 72 72 73 71 69 71 72 69 68 71 73 75 76 78 79 78 80 80 77 71 61 56 59 65 72 74 70 67 59 47 45 44 46 52 55 58 59 56 54 53
52 49 47 46 44 35 28 27 24 22 25 26 30 32 32 33 31 28 26 23 20 15 11 9 7 7 13 22 33 45 50 45 53 73 78 72 72 72 74 77 77 79 83 82 76 72 74 74 69 65 66 69 66 64 64 67 71 71 75 83 84 83 82 79 76 70 64 70 80 85 87 86 85 80 71 57 44 41 42 42 47 51 54 56 54
54 49 49 48 38 30 33 32 22 22 27 28 30 32 32 34 35 34 32 29 27 22 17 12 8 7 7 10 16 24 35 46 59 74 78 73 71 73 76 78 78 78 78 77 74 74 76 75 73 71 71 71 70 69 69 70 73 74 77 82 85 84 83 80 80 80 78 84 92 92 91 91 89 88 88 79 71 66 58 52 48 39 38 42 42
57 52 52 46 34 33 37 30 21 24 27 28 30 31 33 35 36 38 37 35 33 28 23 17 11 9 7 7 10 14 24 40 50 59 70 72 72 75 78 79 78 76 74 73 73 76 78 78 78 78 77 75 73 73 73 71 72 76 78 81 86 87 86 85 82 84 85 87 90 91 92 92 89 88 89 85 84 84 80 78 72 56 47 45 40
58 52 49 41 37 38 33 23 23 26 27 29 30 31 32 34 36 38 37 38 38 35 29 23 16 11 8 7 7 9 14 23 32 40 53 64 73 78 79 80 79 76 74 73 74 76 78 78 77 76 76 75 74 75 77 76 75 79 80 81 86 88 88 86 81 80 82 84 87 90 93 93 89 86 85 83 82 84 85 85 85 81 77 73 65
59 53 47 41 39 35 25 22 24 26 27 28 29 31 33 34 36 37 37 39 40 40 36 29 22 14 9 7 6 7 9 12 17 24 35 50 65 74 77 78 77 77 77 77 77 76 76 74 71 70 69 66 67 71 75 79 82 84 84 84 85 86 88 87 81 76 76 80 85 90 93 93 89 85 84 83 83 83 82 82 83 85 84 82 80
61 55 49 43 36 28 23 23 25 26 27 28 29 32 33 35 36 35 37 39 40 42 40 35 28 20 12 8 6 6 7 9 10 13 20 33 50 64 70 71 71 72 73 73 73 71 69 66 64 61 58 56 56 60 69 80 87 85 82 81 82 83 83 82 79 77 75 77 83 90 92 91 89 87 85 84 84 84 83 83 82 80 79 78 79
61 52 48 46 39 32 27 24 26 27 27 27 29 32 32 35 36 36 37 38 39 42 43 40 34 26 18 10 7 6 6 7 9 10 12 17 29 43 53 58 61 62 63 63 62 61 59 57 56 52 51 49 45 54 70 82 89 85 80 81 81 78 76 76 79 81 78 77 82 86 88 90 90 87 84 82 82 82 81 79 74 70 69 69 72
60 50 47 44 40 37 29 25 27 28 28 29 30 31 33 35 36 36 37 37 39 41 43 44 40 33 24 14 9 6 5 6 7 10 11 11 14 19 25 30 35 39 42 44 45 45 43 42 40 39 39 37 39 57 69 75 85 85 80 82 79 75 77 80 82 81 80 80 82 84 86 88 88 86 83 81 80 78 75 70 66 64 61 60 63
58 52 53 48 41 37 28 24 27 28 28 29 31 34 35 36 36 35 36 38 39 41 45 47 46 41 31 20 12 8 6 6 7 9 10 11 12 12 12 13 14 17 19 22 23 23 23 23 23 23 23 23 29 43 52 66 86 89 83 85 83 77 74 74 75 76 79 82 85 89 91 90 88 85 81 79 78 76 72 66 61 62 63 61 59
57 56 59 56 47 35 24 24 27 28 30 31 33 36 37 37 34 33 37 39 39 42 46 48 47 46 40 27 16 10 8 6 6 8 10 11 12 11 11 11 11 12 12 13 13 13 14 13 14 13 13 14 15 25 50 74 82 77 75 77 76 70 65 67 72 77 81 84 88 90 91 89 85 80 78 78 76 72 66 60 56 58 64 67 63
58 59 58 54 48 36 24 23 27 28 30 31 33 37 40 39 37 37 40 41 41 42 43 45 45 45 45 37 24 15 10 8 6 7 9 11 14 14 13 12 12 12 12 13 13 13 13 12 14 14 14 15 12 20 47 61 53 52 59 63 67 68 70 74 79 82 85 87 88 88 86 84 79 76 75 73 66 59 54 53 54 58 66 73 71
60 61 56 49 47 40 29 23 25 28 30 31 33 38 41 42 41 42 44 45 45 44 42 43 42 43 45 44 35 23 13 10 8 6 7 9 12 14 14 13 13 14 14 14 14 14 14 14 15 16 16 18 17 18 26 29 29 36 42 47 58 66 72 78 82 85 87 86 85 83 79 76 72 68 63 55 50 49 49 51 54 57 61 64 62
62 61 53 49 49 47 39 29 25 27 29 31 34 38 41 42 44 45 47 51 53 53 51 48 46 45 45 46 44 33 18 11 9 8 7 7 9 12 13 14 14 15 15 15 15 14 15 14 14 14 14 14 16 17 20 23 27 32 34 39 47 55 62 71 79 81 79 77 74 70 65 59 52 45 36 33 36 40 40 36 33 30 29 29 27
Wind_Speed
8 12 15 15 15 14 13 11 11 10 10 9 8 7 6 6 6 6 6 6 7 7 6 6 6 6 6 6 6 5 5 5 5 4 2 3 4 5 7 11 14 18 21 20 19 19 18 18 18 19 18 17 17 17 18 17 16 16 15 16 18 19 19 19 19 20 21 23 25 26 27 28 28 28 28 27 28 28 29 31 32 32 30 27 25
6 11 14 15 14 13 12 11 11 11 10 9 8 7 7 7 7 7 7 8 8 7 7 7 6 6 6 5 5 5 5 5 5 5 3 2 4 5 7 10 14 18 21 21 20 18 18 18 18 19 19 18 18 17 18 17 16 16 16 16 18 19 18 18 18 18 20 22 24 26 27 28 28 29 29 29 29 28 29 29 30 31 32 31 28
6 8 12 13 13 12 11 11 11 11 11 10 9 8 8 8 8 8 8 9 8 8 7 7 7 6 5 5 4 4 4 5 5 5 4 2 2 5 6 9 13 17 20 21 20 19 18 18 18 18 19 19 18 17 18 17 16 16 16 16 18 18 17 17 17 17 19 21 23 25 26 27 27 28 29 29 29 29 29 29 29 30 31 32 32
5 7 10 12 12 11 11 11 12 12 11 10 9 9 9 9 9 9 9 10 9 8 7 7 7 6 5 4 4 3 3 4 5 5 4 3 1 3 5 7 12 16 20 21 21 20 19 18 18 18 19 20 18 17 18 16 15 16 16 16 17 17 16 15 15 16 17 19 22 24 25 26 26 27 28 28 29 29 29 29 29 29 30 31 32
4 7 10 11 11 11 11 11 11 12 11 10 10 10 10 10 10 10 10 10 9 9 8 8 7 6 5 4 3 3 3 3 4 4 4 3 2 1 4 6 10 15 19 21 21 21 20 19 19 18 19 20 19 18 17 16 15 16 15 16 16 16 15 14 14 15 16 18 20 22 24 24 25 26 27 27 28 29 29 29 30 30 30 30 31
3 5 8 10 11 11 12 12 12 11 11 10 10 10 11 11 11 12 11 11 10 9 9 9 7 6 5 4 3 3 2 2 3 3 3 3 3 1 2 5 8 13 18 21 22 21 20 19 19 19 19 20 19 18 17 16 15 15 15 15 15 15 14 13 13 13 14 16 18 20 22 23 24 25 25 26 27 27 28 28 29 29 30 30 30
4 5 8 10 11 12 12 13 12 12 12 12 11 11 11 12 12 12 12 11 11 10 10 9 7 6 5 4 3 3 2 2 2 3 3 4 4 3 1 3 6 11 17 20 22 22 21 20 19 19 19 19 19 18 18 16 15 15 14 14 14 14 13 12 12 12 13 14 16 18 20 21 22 23 24 25 26 26 27 27 28 29 29 29 29
4 5 7 9 10 12 13 13 12 12 13 12 12 11 12 12 12 12 12 12 11 10 10 9 7 6 4 4 3 3 2 2 2 3 3 4 4 4 3 2 5 9 14 19 21 21 21 20 20 20 20 19 19 19 18 17 15 15 14 14 14 13 12 11 11 11 11 12 14 16 17 19 20 21 22 23 24 25 26 26 27 27 28 28 29
4 5 7 8 10 12 13 13 13 13 13 12 12 12 12 12 12 12 12 12 11 11 10 9 7 5 5 4 3 3 3 3 3 3 3 3 4 4 4 1 4 8 12 17 20 21 21 21 20 20 20 20 19 19 18 17 16 15 14 14 13 12 11 10 10 10 11 11 12 14 15 16 17 19 20 22 23 23 24 25 26 26 27 27 28
5 6 7 9 12 13 14 15 14 14 13 12 12 12 13 13 13 13 12 11 11 11 10 8 7 5 5 4 4 3 3 3 3 3 3 3 3 3 3 1 3 7 11 16 19 21 21 21 21 20 20 20 19 19 18 17 16 15 15 14 13 12 10 10 9 9 10 11 11 12 14 15 16 17 18 20 21 22 22 23 24 25 25 26 26
5 6 8 11 13 15 17 17 16 15 14 14 13 13 13 14 14 13 12 11 11 10 9 7 6 5 5 4 3 3 3 3 3 3 3 3 3 3 2 1 1 5 10 14 18 20 21 21 21 20 19 19 20 19 18 17 17 16 15 14 13 12 10 9 9 8 9 10 10 11 13 14 15 16 16 18 19 20 20 21 22 23 24 24 25
4 6 9 11 14 16 18 18 17 16 16 15 15 15 14 14 14 13 12 12 11 10 8 7 6 5 4 4 3 3 3 2 2 3 3 3 3 3 2 2 1 3 8 12 16 19 21 21 21 20 20 20 20 20 19 18 18 17 16 15 14 12 11 9 9 8 8 9 9 10 11 12 13 14 15 16 17 18 18 19 20 21 22 23 23
3 5 8 11 15 16 17 18 18 18 18 18 17 16 15 14 13 13 13 13 11 9 8 7 6 5 5 4 3 3 2 2 2 3 3 3 3 3 3 2 2 2 5 10 14 17 20 21 21 21 20 20 20 20 20 19 18 18 17 16 14 13 12 10 9 8 8 8 8 8 9 10 11 12 13 14 15 16 16 17 18 19 19 20 21
4 5 8 11 15 16 17 19 19 20 19 18 17 16 15 13 13 13 13 12 10 8 7 7 6 5 5 4 3 2 1 1 1 2 3 3 3 2 2 2 1 2 3 7 12 15 17 20 21 21 20 20 21 21 21 21 19 19 18 17 15 14 13 12 10 9 8 7 7 7 7 7 8 9 11 12 13 14 14 15 16 16 17 18 19
5 5 6 10 14 14 15 18 21 20 21 20 17 15 14 13 12 13 12 10 8 7 6 6 5 5 4 4 3 2 1 0 1 2 2 2 2 2 2 2 1 1 2 4 9 14 16 17 20 21 21 21 21 21 22 22 21 20 19 18 17 16 15 13 12 10 9 7 7 7 6 5 5 6 7 9 11 12 13 13 14 14 15 16 17
5 5 5 9 15 14 12 16 20 19 21 21 17 15 14 13 12 11 9 6 5 4 4 5 5 5 4 3 3 2 1 1 1 2 2 2 2 2 2 2 2 2 2 2 4 10 15 16 17 19 20 21 21 21 22 22 22 21 21 20 19 18 17 16 14 12 11 9 8 7 7 6 4 4 4 5 7 9 11 11 12 12 13 14 14
6 5 6 9 13 13 11 12 15 15 16 15 13 14 13 12 11 9 6 4 3 3 4 5 5 5 4 3 3 2 1 1 2 2 2 2 2 2 2 2 1 2 2 2 2 5 11 15 16 17 18 20 21 22 22 22 22 22 21 21 20 19 19 18 16 15 13 12 11 9 8 7 6 4 3 1 3 5 7 9 10 10 11 12 12
5 5 7 11 11 10 10 9 10 12 12 11 13 13 12 10 9 8 7 5 4 5 6 6 6 5 4 4 3 2 1 1 2 2 2 1 1 2 2 1 1 2 3 4 3 3 6 10 14 16 17 18 20 22 22 22 22 22 22 22 21 21 20 20 19 17 16 15 14 12 11 9 8 7 5 3 1 2 4 6 7 8 9 9 10
4 7 10 12 12 10 10 10 11 14 16 17 17 15 13 11 8 7 6 5 6 7 8 8 7 6 5 4 4 3 2 2 2 2 2 1 1 1 1 1 1 2 4 5 5 5 5 7 10 13 16 17 19 20 22 22 22 22 21 21 22 22 22 21 20 19 18 17 16 15 13 12 11 10 9 7 6 4 4 4 5 6 7 7 8
4 8 11 13 12 11 10 12 14 17 18 18 17 15 13 11 8 7 5 6 8 9 9 9 8 6 5 5 4 4 3 2 2 2 2 2 1 1 2 2 2 3 5 6 7 6 7 7 8 10 13 16 18 19 20 21 22 22 22 21 21 22 22 22 22 21 20 19 18 17 16 15 14 13 12 11 10 8 7 5 5 5 5 5 6
4 7 11 12 12 12 13 15 16 16 15 15 15 13 11 11 11 9 8 8 9 10 10 10 8 6 6 5 5 4 3 3 3 2 2 2 2 2 2 2 3 3 5 6 7 7 8 9 10 10 11 13 16 18 20 21 22 23 22 22 22 22 23 23 23 22 21 20 19 19 18 17 16 15 14 13 13 12 10 8 6 5 5 4 4
5 7 11 12 13 15 16 16 15 14 14 14 14 13 12 11 11 10 10 10 10 9 9 8 7 6 6 6 5 5 4 4 3 3 3 2 2 3 3 3 3 3 4 5 6 7 7 8 10 11 12 12 13 16 18 21 23 23 23 22 23 23 23 23 23 23 22 21 20 19 19 18 18 17 16 15 15 14 13 11 9 7 6 4 3
6 8 11 12 15 16 15 15 15 15 15 15 15 14 12 11 10 10 10 10 9 8 8 7 7 7 7 6 6 6 5 5 4 4 4 3 3 4 4 4 3 2 3 3 3 4 6 8 9 11 12 13 13 14 15 18 21 22 22 22 23 24 24 23 23 22 22 21 21 20 19 19 19 19 18 17 16 16 15 13 11 9 7 6 5
8 9 11 13 15 17 15 15 16 15 15 14 14 13 12 11 11 10 10 9 8 8 7 7 7 8 8 7 7 6 6 6 6 5 5 4 4 5 5 5 3 2 2 2 1 2 4 6 7 9 11 12 13 14 14 16 18 20 21 21 22 23 24 23 23 22 22 22 22 21 20 19 19 19 19 18 17 16 16 15 13 11 9 7 6
9 10 11 13 15 17 16 16 16 15 14 12 13 14 13 12 11 10 9 9 9 8 8 8 8 8 8 8 8 7 7 7 6 6 5 5 5 5 6 6 4 3 3 2 1 1 2 3 4 5 9 11 13 14 15 17 18 18 18 19 21 22 22 22 22 22 22 22 22 22 21 20 19 19 19 19 18 17 16 15 14 12 10 8 7
9 10 11 13 15 16 17 17 15 15 14 12 13 14 13 12 10 10 10 10 10 10 9 9 8 8 8 8 8 8 8 8 7 6 6 6 6 6 7 7 6 6 5 4 3 2 2 2 2 3 5 8 10 13 15 17 17 14 14 17 18 20 21 21 21 21 21 21 22 22 22 22 21 20 19 19 19 18 17 16 14 13 12 10 9
9 11 12 14 16 17 17 17 16 15 14 13 14 14 12 12 12 12 12 12 11 10 10 9 9 8 9 10 9 8 8 9 7 6 6 6 7 7 7 8 8 8 7 5 5 4 3 2 2 2 2 4 6 9 11 13 13 11 11 14 16 18 19 20 20 20 20 21 21 22 23 23 22 21 20 20 20 19 18 16 15 14 13 12 11
12 13 15 16 17 17 18 18 17 16 15 16 17 14 11 10 12 12 12 9 7 7 8 9 10 9 10 10 9 8 8 8 7 7 8 8 8 8 8 8 8 9 7 6 5 4 4 3 2 2 2 2 3 5 7 9 9 9 11 12 14 16 17 18 19 19 20 20 21 21 22 23 23 22 21 20 20 20 19 17 16 15 14 13 13
13 14 16 18 18 19 20 19 17 17 17 18 16 11 9 8 8 7 6 5 5 7 8 9 11 12 11 10 9 9 9 8 8 8 9 10 10 9 8 8 9 9 7 6 6 5 4 3 3 3 3 2 3 4 4 6 7 8 10 10 12 14 15 17 18 19 19 20 20 20 21 21 22 22 21 20 20 20 20 19 17 17 16 15 14
13 14 16 18 18 21 23 19 16 15 16 15 11 9 8 6 4 4 4 5 6 8 8 10 13 13 10 10 10 10 9 9 9 10 10 11 10 9 9 9 9 8 7 6 6 5 4 4 3 2 2 2 2 3 3 4 4 4 6 8 10 11 12 14 15 16 17 18 18 18 19 19 20 21 20 19 19 19 20 20 19 18 18 17 16
13 14 16 18 19 23 21 16 15 14 13 10 8 7 7 3 2 5 5 6 7 9 9 12 16 12 8 11 12 11 10 9 10 11 11 11 9 9 9 10 9 8 8 7 7 5 5 4 3 3 1 1 2 2 3 3 2 2 2 4 7 9 10 11 12 13 14 15 16 16 17 18 18 19 19 18 18 18 19 20 19 19 19 18 17
13 14 17 20 21 20 16 14 14 12 10 6 3 3 2 3 1 4 6 8 9 10 10 15 16 8 7 14 13 11 10 11 12 12 11 9 8 8 9 10 9 8 8 8 8 7 6 4 3 3 1 1 1 1 1 2 1 1 0 1 2 4 6 8 9 10 12 13 14 14 15 16 17 17 18 18 17 17 18 19 19 18 18 18 17
15 16 18 18 17 16 14 13 11 8 6 3 3 0 1 2 2 4 6 9 10 8 10 16 13 5 9 14 11 10 10 12 13 13 11 10 8 8 9 9 9 9 9 8 8 7 6 5 4 3 2 0 1 1 0 1 1 1 0 1 1 2 3 5 6 8 9 11 12 13 14 15 15 16 16 16 17 17 17 18 18 18 17 17 17
15 16 16 14 13 14 11 8 7 6 4 3 3 2 3 3 1 2 5 8 8 7 10 14 10 6 10 12 10 10 11 11 12 11 10 8 7 8 8 8 9 9 9 9 8 7 7 6 5 4 3 2 1 1 0 1 1 1 2 1 0 1 1 2 3 4 6 7 9 11 12 13 14 14 15 16 16 16 17 17 17 17 17 17 17
15 16 15 13 12 10 5 4 5 5 4 4 5 5 5 5 4 2 3 5 6 5 8 10 8 9 12 11 10 11 10 11 11 9 8 6 7 8 8 8 9 10 10 10 9 8 7 6 6 5 3 2 2 2 2 1 1 2 2 3 2 2 2 2 2 3 4 4 6 8 10 11 13 13 14 16 16 16 16 16 17 17 16 16 16
16 16 14 12 9 6 4 4 4 4 4 5 8 9 8 8 6 4 4 4 5 5 6 8 8 10 12 11 11 11 11 11 10 9 8 7 8 9 8 8 10 11 11 11 10 9 8 6 6 5 4 4 3 3 4 4 4 3 4 4 3 3 3 4 4 4 4 5 5 6 8 9 11 12 13 15 16 16 16 16 16 17 17 17 16
17 16 13 11 8 6 5 4 5 7 8 8 9 11 9 8 6 6 6 6 6 6 5 6 8 10 12 12 12 12 12 11 10 9 9 8 9 10 9 9 10 12 12 12 11 10 9 7 6 6 7 6 5 6 7 7 7 7 6 6 5 5 5 5 6 7 7 6 6 6 7 8 9 11 13 14 15 16 15 15 16 17 17 17 17
18 16 13 11 8 7 5 5 7 10 12 11 11 11 9 8 7 7 8 9 9 9 7 5 6 8 11 13 13 14 14 12 11 10 9 7 8 10 9 10 11 12 13 12 11 10 9 8 7 8 9 9 8 8 9 9 9 9 8 7 7 7 7 6 6 8 8 8 7 6 7 7 8 9 11 12 14 16 16 16 16 16 17 17 17
18 17 16 12 10 10 7 7 8 10 12 12 11 10 8 7 6 8 9 11 12 12 11 9 7 5 6 10 12 14 14 12 10 10 8 7 8 9 9 10 10 12 13 13 11 10 9 9 9 10 10 10 10 10 11 11 11 11 9 9 9 9 8 7 7 7 8 8 8 8 8 9 8 7 8 11 13 14 15 16 17 17 17 17 17
18 18 16 13 12 12 9 8 9 10 12 11 10 8 7 6 5 7 9 11 12 13 13 12 11 9 6 5 8 11 12 11 10 9 7 7 8 8 9 10 10 11 12 12 11 10 10 10 10 10 10 10 10 11 12 12 12 11 10 9 10 10 10 8 7 7 7 8 8 9 10 10 8 6 7 10 12 12 11 13 15 17 18 19 19
17 17 16 15 15 12 11 11 11 12 12 11 10 7 5 4 4 6 7 8 10 12 13 14 13 12 10 6 4 7 10 11 11 10 8 8 8 9 10 10 10 11 12 12 12 11 10 10 11 11 11 12 13 14 14 14 13 12 11 10 10 11 10 9 8 7 7 8 8 9 10 9 7 5 6 7 9 10 11 12 14 15 16 18 19
18 15 15 16 15 14 15 14 13 13 13 10 9 6 4 2 2 3 4 6 8 10 12 14 15 13 12 9 6 4 7 10 12 12 11 10 9 10 10 10 11 11 12 12 12 12 12 12 12 12 12 12 14 14 14 14 13 12 12 12 11 11 10 9 9 8 8 9 10 10 10 9 7 6 6 6 7 9 11 13 14 15 16 16 16
20 16 15 15 15 17 17 15 15 15 14 11 8 5 3 2 0 2 4 5 7 9 11 12 14 14 13 11 8 5 4 6 9 11 12 12 11 11 11 11 12 12 12 13 13 13 13 12 12 12 12 12 13 13 13 12 12 12 12 12 10 10 10 10 10 9 10 10 11 11 10 9 9 9 9 8 8 9 9 10 12 14 16 15 14
21 17 16 16 17 19 17 16 17 17 15 12 9 6 4 3 2 3 4 5 6 8 9 10 12 13 13 12 9 7 5 4 6 8 10 12 13 13 13 13 13 13 13 13 14 14 13 13 13 13 13 13 14 14 13 11 11 12 12 12 11 9 10 10 10 10 10 11 11 11 10 10 10 11 10 10 10 9 9 9 9 11 12 13 14
20 17 16 17 19 20 18 19 19 18 16 12 9 7 6 4 4 5 5 6 7 8 9 9 10 13 13 13 10 8 6 5 4 5 7 9 11 13 14 14 14 14 14 15 15 14 14 14 14 14 15 15 15 14 12 11 11 11 11 12 12 10 10 10 10 11 11 11 11 11 11 11 11 11 11 10 10 9 9 9 9 9 10 11 13
20 17 16 18 20 21 21 21 21 19 16 13 11 9 7 6 6 7 7 7 8 9 9 8 10 12 13 13 12 10 8 7 5 4 4 6 7 9 11 13 14 15 15 16 15 15 15 16 16 15 16 16 15 14 12 11 11 10 11 12 12 11 10 10 11 11 12 11 12 11 11 11 11 11 10 9 9 9 9 9 9 9 9 8 9
21 18 16 17 19 20 21 22 21 20 17 14 12 10 8 8 8 8 9 9 9 9 10 9 9 11 13 14 13 12 10 9 7 5 5 4 5 6 7 8 10 11 12 13 14 14 14 14 14 14 15 16 16 15 13 12 9 8 8 10 11 11 10 11 12 12 12 12 11 10 10 10 10 10 10 10 10 10 10 10 10 10 9 9 9
23 19 16 15 17 19 21 22 22 21 19 16 13 11 9 9 10 10 11 11 11 11 11 10 10 11 13 14 14 13 11 10 9 7 6 5 4 4 5 6 6 7 8 9 9 10 10 10 9 9 10 12 13 14 12 10 9 7 7 8 9 10 10 11 11 11 11 11 10 10 10 10 10 10 10 10 10 11 11 11 11 10 10 11 11
22 19 15 15 17 20 21 22 23 22 20 17 14 13 11 11 11 11 12 13 14 13 12 12 12 12 13 14 15 14 12 11 9 8 8 7 5 5 5 4 4 5 5 5 5 5 5 5 5 5 5 7 10 12 12 11 11 10 9 9 9 10 10 10 10 10 10 9 9 9 9 10 10 10 11 11 11 11 11 10 10 10 11 11 12
20 17 15 15 17 20 21 22 23 23 20 17 16 15 14 13 12 12 13 15 17 17 16 15 15 15 14 14 15 15 13 12 10 8 7 6 6 5 5 3 3 2 2 1 1 2 2 1 1 1 2 3 5 8 9 10 9 9 9 9 9 9 9 9 10 10 10 9 9 10 10 10 10 10 10 10 10 9 9 9 9 10 10 11 12
19 17 16 17 17 19 22 23 24 23 21 19 17 16 16 15 14 14 14 17 19 20 19 19 18 18 18 16 15 16 14 13 11 9 7 6 5 5 4 2 1 1 1 1 1 1 1 2 2 3 3 3 2 2 3 4 5 6 7 8 8 8 9 9 9 10 10 10 9 9 9 9 9 9 9 9 8 8 8 9 9 9 8 9 9
Wind_Direction
230 226 221 221 219 216 217 215 213 206 198 192 185 177 166 158 153 154 155 159 158 153 143 132 116 99 88 76 64 57 46 42 40 45 96 154 165 170 172 177 175 170 170 173 172 167 164 162 156 148 144 143 141 137 131 124 118 113 108 102 99 96 94 91 88 85 83 80 77 75 73 70 68 67 66 65 64 63 63 61 61 60 60 60 58
225 229 223 219 218 217 219 217 214 207 199 193 186 181 173 166 158 159 162 165 165 160 150 137 124 112 101 86 71 62 51 44 39 39 62 141 172 180 179 181 181 175 173 175 175 171 167 166 162 153 148 147 146 142 134 128 123 117 112 108 105 101 98 93 89 87 84 82 79 77 74 72 70 68 67 65 64 63 62 61 59 59 59 58 57
202 218 222 218 221 224 223 220 215 209 203 194 188 185 179 172 165 167 169 171 169 163 153 141 134 126 116 100 85 68 57 49 40 36 42 71 171 189 188 186 186 181 178 178 178 175 172 170 168 159 151 151 152 146 139 134 129 123 119 114 109 105 101 95 91 87 84 83 81 79 76 74 72 70 68 66 65 63 62 61 59 58 58 57 56
183 189 215 221 226 229 227 223 218 213 206 196 192 188 184 177 172 174 175 176 172 164 155 147 143 137 128 114 99 81 64 50 41 32 29 33 96 191 194 190 188 186 183 182 181 179 177 174 172 165 156 154 157 152 145 141 135 130 126 119 114 110 106 99 92 87 84 83 82 80 78 75 73 71 69 67 66 64 63 61 60 58 57 56 56
176 179 208 222 232 238 235 228 222 218 209 201 197 193 190 183 179 179 180 179 173 166 160 155 152 147 139 126 108 93 75 56 44 29 18 13 16 182 195 192 188 190 187 185 186 184 181 178 176 171 161 158 161 158 151 148 141 136 132 126 120 115 110 103 96 89 85 82 82 81 79 76 73 72 70 68 66 65 63 62 61 59 58 57 56
160 182 206 221 236 242 237 230 224 219 211 205 201 199 196 188 185 184 183 181 176 170 165 163 161 157 150 135 116 101 84 64 53 37 14 357 351 2 187 194 189 192 193 190 189 189 185 181 179 176 168 162 165 164 157 155 148 143 139 132 126 121 115 108 101 93 87 83 82 80 79 77 74 72 70 68 66 65 63 62 61 60 59 57 56
161 193 209 221 235 238 234 229 223 218 212 206 202 202 200 195 190 189 187 183 179 174 170 168 168 165 158 141 125 110 91 71 62 48 22 359 340 345 98 192 193 192 196 195 193 193 190 185 182 180 175 168 169 169 163 161 157 150 148 140 133 128 121 113 105 97 90 85 83 81 79 77 74 72 69 68 66 64 62 61 60 60 59 58 57
180 203 212 220 228 230 229 227 224 219 215 207 202 202 202 200 195 192 190 186 182 177 175 173 173 171 161 147 133 114 81 58 48 51 39 11 343 343 21 177 197 195 198 198 197 197 195 190 186 184 180 175 172 173 170 167 165 159 155 150 142 137 129 119 109 102 96 90 86 82 80 78 75 73 71 68 65 63 62 60 60 59 59 58 58
184 207 213 216 219 223 225 225 224 221 217 210 203 201 201 202 199 196 193 188 184 182 179 177 176 172 161 150 130 100 69 48 32 43 43 24 358 347 12 95 197 201 200 200 200 200 200 196 192 189 186 182 176 177 177 173 172 167 163 159 153 147 139 128 118 108 102 95 91 86 82 79 76 74 72 70 67 64 61 60 59 58 57 57 57
181 206 215 217 219 220 222 222 221 218 212 208 203 201 200 199 199 197 195 188 185 185 182 180 178 172 161 144 123 94 72 49 22 21 30 28 14 347 355 47 196 204 203 203 202 201 203 202 198 195 190 187 183 181 182 180 178 177 172 168 163 159 151 140 129 120 110 101 95 92 86 81 77 73 72 71 69 65 62 60 59 57 56 56 56
183 206 216 221 223 222 223 221 218 214 207 204 202 200 198 197 197 195 192 188 186 186 183 183 179 171 155 131 112 93 75 50 14 357 12 22 11 343 332 332 222 210 206 205 205 203 204 206 204 201 195 192 189 186 187 188 186 184 182 177 173 169 164 155 144 135 124 112 102 97 92 85 79 73 70 69 69 66 63 60 59 58 56 55 55
182 210 222 226 229 228 227 224 221 216 207 202 200 200 199 196 194 190 189 188 187 186 184 185 180 167 147 127 113 103 84 51 5 349 357 6 357 346 337 308 272 227 211 207 207 206 205 208 208 205 201 196 195 191 191 194 194 191 191 188 182 180 177 171 162 153 143 129 115 104 97 91 84 78 71 67 67 66 64 61 59 58 57 55 54
183 210 225 230 230 228 226 226 224 220 210 201 199 200 198 195 190 187 189 189 187 184 185 184 179 164 144 138 129 117 91 45 357 349 348 355 355 349 347 325 288 258 224 212 210 209 208 208 209 208 206 202 199 197 195 197 200 198 198 197 193 191 189 186 180 170 161 149 135 119 106 98 90 84 77 70 66 65 64 62 59 57 57 56 54
180 203 221 227 226 224 223 223 223 222 216 205 198 199 197 191 187 187 189 189 185 184 186 183 177 164 148 148 140 123 103 30 349 349 345 349 357 358 356 345 306 277 250 224 215 212 211 209 210 209 209 207 204 202 200 199 203 204 204 204 202 201 200 199 196 190 182 171 158 144 128 112 99 87 81 75 68 64 62 62 60 58 57 56 56
169 196 219 228 231 232 233 231 227 223 217 209 198 196 197 189 186 186 186 184 183 185 186 184 178 166 158 156 150 144 166 316 343 342 344 347 355 2 3 351 325 290 279 248 223 217 215 212 212 212 210 210 209 207 205 203 204 208 208 208 208 208 209 209 209 207 201 196 185 171 160 142 120 101 87 78 70 64 60 59 58 58 57 56 56
156 182 207 227 233 236 250 247 235 225 218 214 197 186 192 188 182 181 178 172 173 188 192 193 188 177 171 168 171 185 211 299 339 343 343 345 353 359 4 359 337 306 289 284 233 221 219 217 214 214 213 212 211 210 210 208 207 210 212 212 213 213 214 215 216 217 216 215 210 200 190 180 166 143 111 83 71 63 57 55 54 54 55 55 55
147 169 202 220 228 233 251 254 240 234 228 216 187 176 180 175 170 166 158 154 162 202 216 216 207 193 188 187 198 213 236 303 330 339 332 326 349 1 4 359 328 295 280 284 257 226 222 222 220 218 216 215 214 213 213 213 211 212 214 216 217 218 219 219 219 221 223 224 223 220 214 209 205 199 187 122 65 53 49 47 48 49 50 52 52
142 163 208 217 225 235 243 241 227 219 208 182 162 161 164 159 161 161 152 153 178 208 222 223 218 208 205 207 214 224 243 284 310 315 299 293 337 1 359 345 309 280 272 269 261 245 227 225 224 222 220 218 218 217 216 215 215 215 218 219 220 222 223 224 223 223 225 228 230 229 227 226 225 227 229 232 278 1 19 27 35 39 43 47 48
142 160 189 206 221 231 225 219 203 187 183 173 163 161 168 168 166 169 156 168 198 211 222 223 220 215 214 216 218 224 240 268 289 284 265 260 305 331 321 315 303 276 266 264 258 251 240 230 226 224 223 222 221 220 220 219 218 218 221 222 222 224 226 228 229 228 227 229 232 234 234 233 233 235 239 247 259 282 316 349 8 20 30 38 43
153 162 179 195 209 214 206 200 185 176 181 182 178 180 187 186 182 188 185 198 206 206 216 222 222 220 218 217 219 227 240 262 274 264 249 242 263 282 294 297 286 270 263 263 262 255 248 239 232 226 224 224 224 224 224 223 222 221 222 224 225 226 228 230 232 233 232 231 233 237 239 239 238 238 241 248 256 268 285 306 331 349 7 22 31
157 167 181 192 192 191 192 189 183 181 187 191 195 196 196 194 192 194 196 204 204 202 210 220 226 224 221 219 223 235 248 266 272 265 253 245 257 269 277 278 275 270 268 268 266 260 252 242 236 230 226 224 224 225 225 225 226 224 223 225 227 229 230 231 233 235 237 236 235 236 240 243 244 243 243 247 253 262 272 286 302 319 333 350 7
157 167 177 185 181 183 188 190 192 191 191 192 192 193 194 194 191 190 197 202 202 201 208 219 228 230 228 229 237 247 258 272 275 266 252 243 250 258 260 264 268 274 280 282 273 261 252 242 234 229 227 224 223 224 225 226 227 226 224 224 226 229 231 232 233 236 238 240 240 239 239 242 246 248 247 248 251 257 265 275 286 297 306 315 327
155 168 177 179 178 184 191 196 197 190 187 185 184 191 192 188 189 192 197 199 201 204 212 224 231 235 238 243 251 258 268 277 276 264 247 238 240 247 251 256 265 276 295 307 287 259 247 239 231 227 225 225 226 226 227 228 228 228 226 225 226 228 231 232 233 235 238 241 243 243 242 241 244 248 251 250 251 255 261 268 276 283 289 293 296
159 169 178 179 180 185 190 194 194 192 191 187 188 193 186 182 189 193 197 199 207 212 219 229 235 242 248 253 260 264 271 276 274 268 261 255 251 250 251 253 257 268 296 321 306 242 237 235 230 226 226 225 226 227 229 231 230 228 226 226 227 228 230 232 233 234 236 239 242 245 245 244 243 246 250 253 253 255 258 263 269 274 276 277 279
168 173 178 182 185 185 188 192 195 199 198 192 195 192 182 186 189 191 198 204 212 219 226 235 242 251 257 262 268 269 270 273 274 275 277 277 271 263 258 259 259 257 264 277 272 230 229 236 236 229 229 228 227 229 231 235 236 230 225 226 227 228 230 231 233 235 236 238 240 244 247 248 247 247 249 253 255 256 257 260 262 265 265 265 264
174 176 180 186 192 192 194 197 199 203 200 197 204 195 183 186 191 197 204 209 216 219 224 234 242 250 257 263 269 271 274 276 277 280 286 287 279 266 261 262 262 259 257 261 263 259 246 246 251 238 232 230 228 230 233 238 240 233 223 223 225 227 229 231 233 235 236 237 239 242 245 248 250 249 249 251 254 256 256 257 258 259 258 256 254
178 179 184 191 199 202 202 203 201 202 199 199 208 201 187 189 196 205 210 209 215 223 227 233 240 246 254 261 266 271 277 282 285 288 290 288 278 262 254 254 257 259 260 260 263 267 263 254 257 255 237 229 227 229 231 236 237 227 215 215 219 223 226 230 232 234 236 237 238 240 243 247 250 251 250 250 252 254 255 255 255 254 253 252 249
182 186 191 196 202 205 205 206 203 201 198 200 207 201 189 199 207 212 217 218 222 241 251 252 255 254 253 260 269 275 278 284 289 289 289 290 284 268 253 249 251 257 261 265 273 278 272 260 261 273 271 259 251 243 239 238 231 215 208 211 213 218 223 227 230 233 235 237 238 240 242 245 248 251 251 250 251 253 254 254 253 253 252 251 249
188 193 196 200 203 205 207 208 204 203 203 203 205 194 186 209 226 230 244 261 257 257 259 261 264 257 253 260 267 271 273 280 287 289 291 291 287 278 264 254 250 255 262 271 279 275 262 256 267 286 294 301 301 288 271 256 239 214 204 206 210 215 221 225 229 232 235 237 239 240 242 244 248 251 252 251 250 251 253 253 252 252 252 251 250
192 197 201 205 204 206 207 206 205 208 212 206 198 195 193 202 260 287 287 280 271 265 261 262 262 259 265 270 265 265 267 278 289 289 288 287 285 284 273 259 254 257 263 271 272 257 242 237 249 277 303 330 334 319 303 287 271 242 207 201 205 210 218 224 228 232 236 239 241 243 244 247 249 251 254 254 252 251 252 253 252 251 251 251 249
193 198 205 207 205 209 207 199 201 204 212 210 197 204 195 161 305 300 289 276 263 259 260 260 259 259 272 268 257 256 261 271 279 277 278 280 281 282 273 262 259 261 264 267 264 253 240 230 234 254 283 2 1 333 314 311 306 296 251 208 207 210 217 224 229 233 237 241 243 245 247 250 252 254 256 255 254 252 251 253 252 251 250 250 249
190 198 210 207 203 210 206 192 196 194 199 206 192 219 177 128 264 280 278 272 262 261 267 265 263 267 268 261 255 251 253 259 264 265 265 266 266 264 262 258 255 253 256 259 260 260 256 247 241 246 257 44 27 356 317 324 333 319 336 190 206 211 218 225 232 235 238 241 243 244 246 249 252 254 256 255 253 250 249 249 250 250 248 249 248
187 197 214 213 202 207 205 189 186 185 187 175 142 134 73 118 237 262 266 269 270 275 275 268 270 276 258 259 262 257 252 253 257 258 260 260 253 245 246 249 247 241 242 247 254 261 269 270 254 242 238 134 64 50 328 327 353 3 38 92 150 191 202 214 227 232 236 240 240 242 244 246 249 252 253 253 251 248 246 246 246 247 245 245 246
188 195 213 217 204 206 208 182 168 175 171 139 123 111 84 96 134 265 270 272 277 284 275 273 280 274 254 255 265 263 255 253 255 258 263 260 246 237 238 241 243 239 237 238 240 251 269 273 257 245 235 200 142 118 131 320 342 351 352 346 322 235 210 211 227 233 236 238 240 244 246 247 249 250 250 249 248 247 245 243 242 243 242 242 243
189 194 209 218 210 203 198 176 177 180 159 128 118 111 98 90 83 49 311 290 296 298 274 271 274 266 260 257 257 259 258 256 257 263 266 253 238 236 233 230 233 235 236 235 233 241 259 264 255 250 240 226 205 189 211 243 291 325 327 320 314 304 291 268 259 254 251 248 244 245 247 249 251 251 250 245 243 243 243 243 241 241 240 239 240
192 196 206 217 217 201 193 202 194 172 170 162 133 114 100 88 77 55 20 345 334 328 288 271 265 260 263 262 255 255 258 258 260 267 266 247 231 229 227 223 224 230 235 239 240 243 250 254 254 253 248 245 246 244 242 243 250 264 276 286 288 281 272 258 249 245 246 246 242 240 240 242 244 245 247 245 242 240 240 240 241 241 239 238 238
192 195 199 205 210 206 202 193 167 159 172 170 132 109 99 91 75 54 37 27 17 8 339 294 273 259 259 258 252 252 253 253 256 262 260 242 226 225 228 222 222 230 236 242 245 247 248 250 252 259 263 258 254 251 249 249 251 255 261 269 273 268 259 249 238 231 230 234 234 229 230 231 231 233 237 239 239 240 239 238 238 239 240 239 237
187 188 187 194 195 182 171 153 153 154 153 142 117 108 105 95 77 58 43 35 32 28 22 347 299 269 255 249 245 246 248 248 251 256 253 239 225 222 225 225 225 230 235 240 243 245 245 244 247 255 260 261 260 257 256 258 260 262 263 261 258 258 255 248 235 228 225 226 229 227 227 229 225 226 235 240 238 237 239 239 238 239 240 241 240
185 185 184 192 182 168 163 148 150 150 140 128 120 120 112 96 77 60 47 38 32 28 26 20 3 327 273 252 244 244 244 240 240 248 245 237 226 218 222 226 227 229 233 238 239 240 239 240 246 249 250 254 261 265 265 264 262 262 261 256 252 253 253 247 237 228 222 223 234 241 244 244 236 228 239 248 245 238 238 242 244 243 243 243 243
189 189 192 198 183 180 191 176 163 155 145 139 138 133 120 104 78 58 47 39 33 27 24 21 17 9 348 290 255 245 242 234 229 235 234 228 223 216 218 219 219 224 231 236 237 236 235 237 243 245 245 250 258 264 266 265 263 262 263 258 252 249 245 239 237 232 224 228 241 250 257 262 263 254 244 243 243 241 239 243 247 248 248 248 248
190 192 199 199 191 196 201 187 174 164 159 157 154 146 135 120 81 60 46 36 30 26 24 21 19 16 9 353 302 257 246 238 231 228 221 215 211 209 212 212 213 219 226 233 234 230 230 233 238 242 247 251 257 262 265 268 267 265 265 257 246 243 237 232 236 239 237 241 246 250 257 264 268 265 257 248 244 246 244 244 247 251 253 253 252
188 187 194 197 201 205 196 185 178 174 174 172 167 163 159 147 84 55 35 30 24 21 21 19 19 17 14 10 351 299 257 246 239 232 224 216 208 206 209 211 214 218 223 227 228 227 226 228 233 239 246 252 257 261 262 265 263 259 258 252 244 242 236 228 232 240 245 247 250 254 256 257 258 262 268 267 258 255 254 252 251 249 250 252 254
189 184 189 197 202 199 193 187 182 183 186 183 179 182 188 205 328 4 1 10 14 14 15 15 16 16 15 12 3 343 292 259 247 239 231 223 215 211 210 212 216 219 221 224 226 226 223 224 228 233 241 250 257 262 262 259 252 245 244 242 239 237 232 228 234 242 245 243 245 253 257 259 265 271 272 272 267 261 260 261 257 250 249 253 258
192 189 191 200 201 196 194 191 188 190 194 190 187 197 216 248 300 325 332 343 355 1 3 5 9 12 14 12 5 354 330 289 259 248 237 229 223 219 217 216 219 221 222 224 226 227 225 227 229 233 240 247 256 262 262 254 242 235 234 235 230 226 228 233 242 250 251 246 245 251 257 261 267 272 273 271 266 260 256 257 260 259 257 258 261
193 191 194 205 208 203 198 194 193 196 198 195 195 210 231 258 289 308 315 322 334 342 348 355 360 3 7 7 3 356 343 323 289 262 247 238 231 229 228 227 228 229 231 232 232 232 233 235 236 238 241 245 252 256 257 252 242 233 232 230 223 224 233 238 245 250 250 250 248 249 253 257 263 267 268 265 262 261 260 262 267 269 267 264 263
191 190 194 205 211 205 198 197 197 200 202 201 203 215 235 257 279 299 311 315 318 327 336 346 353 353 356 358 357 353 347 337 318 289 260 245 237 235 236 236 238 238 240 243 244 244 245 246 247 246 246 248 249 248 249 252 243 228 225 227 221 222 230 234 240 243 246 247 244 245 249 254 258 261 265 266 268 273 278 283 285 284 283 279 272
194 195 200 205 210 207 201 200 202 205 208 207 209 220 236 256 276 294 308 313 310 317 327 336 345 346 345 347 350 348 345 339 329 312 287 267 252 246 242 243 245 246 247 249 252 253 254 255 255 253 251 250 247 244 245 248 239 217 217 226 224 223 228 234 240 243 245 247 244 244 245 249 256 264 273 278 282 286 288 289 288 285 284 282 281
199 206 211 209 210 208 204 204 207 210 212 212 215 223 239 258 277 291 300 304 304 309 317 323 331 337 336 336 341 343 341 337 330 318 306 297 285 271 259 253 250 249 251 252 254 256 257 257 256 253 250 247 244 240 236 236 239 236 234 236 237 239 241 242 246 248 249 251 250 249 250 254 264 274 281 283 284 286 286 286 284 280 275 275 279
204 212 216 209 206 207 206 206 210 213 215 217 220 225 239 257 273 286 292 295 298 302 307 310 314 318 322 325 330 334 336 334 328 318 308 303 295 284 274 263 252 245 244 246 251 252 252 250 248 246 242 239 238 235 234 237 245 250 249 246 247 250 248 247 252 255 256 256 254 255 259 265 271 276 278 279 282 284 284 284 283 279 274 273 278
208 214 214 205 202 205 207 209 211 215 217 220 223 227 237 252 266 277 285 290 292 293 295 297 299 303 307 312 318 325 331 329 325 320 310 301 289 276 270 261 240 220 216 218 229 230 224 215 204 199 205 214 224 229 236 243 245 247 247 246 245 245 245 246 247 250 253 252 253 258 263 268 273 277 279 281 282 282 284 285 284 282 278 276 278
207 209 206 202 201 205 210 212 213 215 217 220 224 228 236 248 260 272 281 288 291 291 293 293 295 298 300 300 303 311 321 325 323 321 314 301 285 266 253 237 190 147 133 115 106 108 98 91 87 88 96 107 128 163 195 215 226 231 235 237 237 237 237 238 239 244 249 252 257 264 270 275 278 279 282 284 285 285 286 288 289 290 288 283 281